ASA82 PANC-KSEA

Flight info

Callsign ASA82
Flight time N/A
Altitude 35000
Route NOEND4 NOEND LAIRE BKA ANN VIXOR MARNR8
Aircraft B738/M-SDE2E3FGHIRWXY/LB1

Departure

Time 2026-04-30 13:10
Airport Ted Stevens Anchorage International Airport (PANC)

Arrival

Time N/A
Airport Seattle–Tacoma International Airport (KSEA)
Time Latitude Longitude Altitude Speed Heading
2026-04-30 12:15 61.17315 -149.98418 110 ft 0 kts 148°
2026-04-30 13:02 61.17315 -149.98419 110 ft 1 kts 148°
2026-04-30 13:03 61.17336 -149.98445 110 ft 4 kts 148°
2026-04-30 13:03 61.17359 -149.98474 109 ft 4 kts 148°
2026-04-30 13:03 61.17382 -149.98503 109 ft 4 kts 148°
2026-04-30 13:03 61.17391 -149.98516 108 ft 1 kts 148°
2026-04-30 13:04 61.17392 -149.98516 107 ft 0 kts 148°
2026-04-30 13:07 61.17380 -149.98523 107 ft 2 kts 216°
2026-04-30 13:07 61.17348 -149.98594 107 ft 14 kts 227°
2026-04-30 13:07 61.17278 -149.98745 109 ft 14 kts 221°
2026-04-30 13:07 61.17205 -149.98876 111 ft 14 kts 226°
2026-04-30 13:08 61.17145 -149.99021 114 ft 13 kts 230°
2026-04-30 13:08 61.17125 -149.99196 117 ft 13 kts 270°
2026-04-30 13:08 61.17125 -149.99377 120 ft 12 kts 270°
2026-04-30 13:08 61.17125 -149.99552 124 ft 12 kts 270°
2026-04-30 13:09 61.17124 -149.99723 127 ft 12 kts 270°
2026-04-30 13:09 61.17152 -149.99867 129 ft 11 kts 329°
2026-04-30 13:09 61.17193 -149.99897 128 ft 0 kts 344°
2026-04-30 13:10 61.17204 -149.99904 126 ft 16 kts 344°
2026-04-30 13:10 61.17621 -150.00137 122 ft 108 kts 345°
2026-04-30 13:10 61.18582 -150.00665 428 ft 153 kts 346°
2026-04-30 13:10 61.19658 -150.01277 1395 ft 168 kts 342°
2026-04-30 13:11 61.20790 -150.02232 2212 ft 193 kts 329°
2026-04-30 13:11 61.22011 -150.03941 2563 ft 228 kts 324°
2026-04-30 13:11 61.23342 -150.05911 3117 ft 240 kts 324°
2026-04-30 13:11 61.24730 -150.07940 3752 ft 247 kts 324°
2026-04-30 13:12 61.26158 -150.10005 4572 ft 251 kts 324°
2026-04-30 13:12 61.27616 -150.12038 5424 ft 255 kts 332°
2026-04-30 13:12 61.29331 -150.12890 6246 ft 258 kts
2026-04-30 13:13 61.32329 -150.09208 7774 ft 259 kts 49°
2026-04-30 13:13 61.33577 -150.06447 8520 ft 264 kts 50°
2026-04-30 13:13 61.35250 -149.99887 10039 ft 259 kts 94°
2026-04-30 13:14 61.34884 -149.96217 10449 ft 267 kts 120°
2026-04-30 13:14 61.33761 -149.93009 10650 ft 286 kts 136°
2026-04-30 13:14 61.30782 -149.86532 11012 ft 333 kts 137°
2026-04-30 13:15 61.29138 -149.82925 11215 ft 353 kts 136°
2026-04-30 13:15 61.26213 -149.74421 12264 ft 380 kts 111°
2026-04-30 13:15 61.25526 -149.69050 12917 ft 388 kts 108°
2026-04-30 13:16 61.24868 -149.63536 13458 ft 397 kts 108°
2026-04-30 13:16 61.24231 -149.57907 14016 ft 405 kts 106°
2026-04-30 13:16 61.23672 -149.52127 14562 ft 410 kts 105°
2026-04-30 13:17 61.22541 -149.40401 15791 ft 419 kts 105°
2026-04-30 13:17 61.22143 -149.36399 16185 ft 422 kts 105°
2026-04-30 13:17 61.20974 -149.24312 17328 ft 433 kts 105°
2026-04-30 13:18 61.20384 -149.18147 17893 ft 438 kts 104°
2026-04-30 13:18 61.19177 -149.05639 18919 ft 446 kts 105°
2026-04-30 13:18 61.18560 -148.99297 19428 ft 450 kts 105°
2026-04-30 13:19 61.17935 -148.92930 19899 ft 453 kts 105°
2026-04-30 13:19 61.17301 -148.86506 20347 ft 457 kts 105°
2026-04-30 13:19 61.16658 -148.80027 20746 ft 460 kts 105°
2026-04-30 13:19 61.16009 -148.73521 21144 ft 463 kts 105°
2026-04-30 13:20 61.15352 -148.66969 21571 ft 467 kts 105°
2026-04-30 13:20 61.14688 -148.60363 22035 ft 469 kts 105°
2026-04-30 13:20 61.14017 -148.53735 22479 ft 472 kts 105°
2026-04-30 13:20 61.13307 -148.47083 22869 ft 474 kts 109°
2026-04-30 13:21 61.12058 -148.40812 23251 ft 471 kts 122°
2026-04-30 13:21 61.10547 -148.34798 23683 ft 473 kts 122°
2026-04-30 13:21 61.09003 -148.28773 24022 ft 475 kts 122°
2026-04-30 13:22 61.05886 -148.16571 24728 ft 479 kts 122°
2026-04-30 13:22 61.04343 -148.10463 25069 ft 481 kts 122°
2026-04-30 13:22 61.01255 -147.98153 25744 ft 485 kts 122°
2026-04-30 13:23 60.99704 -147.91966 26056 ft 487 kts 122°
2026-04-30 13:23 60.96580 -147.79539 26712 ft 490 kts 122°
2026-04-30 13:24 60.93420 -147.67048 27320 ft 494 kts 122°
2026-04-30 13:24 60.90223 -147.54494 27872 ft 497 kts 122°
2026-04-30 13:25 60.87012 -147.41948 28726 ft 493 kts 122°
2026-04-30 13:25 60.83822 -147.29552 29540 ft 491 kts 122°
2026-04-30 13:26 60.79025 -147.11059 30628 ft 488 kts 122°
2026-04-30 13:26 60.75836 -146.98846 31252 ft 486 kts 122°
2026-04-30 13:27 60.72643 -146.86685 31889 ft 484 kts 122°
2026-04-30 13:28 60.67863 -146.68604 32806 ft 481 kts 122°
2026-04-30 13:28 60.64675 -146.56626 33419 ft 479 kts 122°
2026-04-30 13:28 60.63084 -146.50669 33701 ft 479 kts 122°
2026-04-30 13:29 60.59898 -146.38795 34269 ft 477 kts 122°
2026-04-30 13:29 60.56692 -146.26908 34691 ft 476 kts 122°
2026-04-30 13:30 60.51890 -146.09219 35139 ft 479 kts 122°
2026-04-30 13:31 60.48663 -145.97411 35132 ft 477 kts 122°
2026-04-30 13:32 60.40644 -145.68316 35132 ft 470 kts 123°
2026-04-30 13:33 60.34232 -145.45329 35134 ft 470 kts 123°
2026-04-30 13:34 60.29385 -145.28105 35130 ft 472 kts 123°
2026-04-30 13:35 60.22849 -145.05081 35123 ft 475 kts 123°
2026-04-30 13:36 60.16217 -144.81950 35127 ft 477 kts 123°
2026-04-30 13:36 60.11224 -144.64687 35125 ft 477 kts 123°
2026-04-30 13:37 60.06215 -144.47500 35131 ft 476 kts 123°
2026-04-30 13:38 60.01195 -144.30405 35125 ft 475 kts 124°
2026-04-30 13:39 59.94481 -144.07735 35127 ft 473 kts 124°
2026-04-30 13:40 59.89433 -143.90838 35133 ft 473 kts 124°
2026-04-30 13:40 59.86056 -143.79602 35125 ft 472 kts 124°
2026-04-30 13:41 59.82674 -143.68405 35131 ft 472 kts 124°
2026-04-30 13:41 59.79281 -143.57223 35127 ft 473 kts 124°
2026-04-30 13:42 59.75853 -143.45983 35129 ft 473 kts 124°
2026-04-30 13:42 59.70725 -143.29269 35128 ft 474 kts 124°
2026-04-30 13:43 59.67288 -143.18134 35127 ft 474 kts 124°
2026-04-30 13:43 59.63840 -143.07017 35129 ft 474 kts 124°
2026-04-30 13:44 59.60384 -142.95928 35125 ft 475 kts 125°
2026-04-30 13:44 59.56914 -142.84845 35126 ft 475 kts 125°
2026-04-30 13:45 59.51686 -142.68247 35134 ft 475 kts 125°
2026-04-30 13:46 59.48189 -142.57208 35129 ft 475 kts 125°
2026-04-30 13:46 59.44683 -142.46194 35132 ft 475 kts 125°
2026-04-30 13:47 59.41168 -142.35205 35127 ft 475 kts 125°
2026-04-30 13:47 59.37642 -142.24234 35137 ft 475 kts 125°
2026-04-30 13:48 59.34109 -142.13291 35132 ft 475 kts 125°
2026-04-30 13:48 59.30538 -142.02282 35132 ft 475 kts 126°
2026-04-30 13:49 59.26990 -141.91395 35131 ft 475 kts 126°
2026-04-30 13:49 59.24030 -141.82351 35131 ft 475 kts 126°
2026-04-30 13:50 59.20463 -141.71498 35135 ft 475 kts 126°
2026-04-30 13:50 59.15098 -141.55268 35136 ft 475 kts 126°
2026-04-30 13:51 59.11513 -141.44483 35135 ft 474 kts 126°
2026-04-30 13:51 59.07915 -141.33712 35134 ft 474 kts 126°
2026-04-30 13:52 59.04313 -141.22976 35135 ft 474 kts 126°
2026-04-30 13:52 59.00700 -141.12258 35139 ft 474 kts 126°
2026-04-30 13:53 58.97079 -141.01560 35141 ft 474 kts 126°
2026-04-30 13:53 58.93424 -140.90816 35141 ft 474 kts 126°
2026-04-30 13:54 58.89784 -140.80160 35143 ft 475 kts 126°
2026-04-30 13:54 58.86136 -140.69530 35143 ft 475 kts 126°
2026-04-30 13:55 58.82479 -140.58911 35144 ft 475 kts 126°
2026-04-30 13:55 58.78805 -140.48329 35147 ft 475 kts 127°
2026-04-30 13:56 58.75093 -140.37820 35148 ft 475 kts 127°
2026-04-30 13:56 58.71363 -140.27329 35147 ft 475 kts 127°
2026-04-30 13:57 58.67628 -140.16851 35146 ft 475 kts 127°
2026-04-30 13:57 58.63891 -140.06400 35149 ft 475 kts 127°
2026-04-30 13:58 58.58272 -139.90766 35153 ft 475 kts 127°
2026-04-30 13:59 58.54514 -139.80370 35151 ft 475 kts 127°
2026-04-30 13:59 58.50724 -139.69927 35153 ft 474 kts 127°
2026-04-30 14:00 58.46949 -139.59576 35150 ft 474 kts 128°
2026-04-30 14:00 58.41273 -139.44092 35150 ft 474 kts 128°
2026-04-30 14:01 58.37483 -139.33811 35154 ft 474 kts 128°
2026-04-30 14:01 58.33683 -139.23545 35158 ft 474 kts 128°
2026-04-30 14:02 58.29877 -139.13310 35152 ft 474 kts 128°
2026-04-30 14:02 58.26065 -139.03100 35151 ft 474 kts 128°
2026-04-30 14:03 58.22242 -138.92905 35153 ft 473 kts 128°
2026-04-30 14:03 58.18418 -138.82750 35150 ft 473 kts 128°
2026-04-30 14:04 58.14586 -138.72618 35153 ft 473 kts 129°
2026-04-30 14:04 58.10751 -138.62523 35148 ft 472 kts 129°
2026-04-30 14:05 58.06912 -138.52456 35151 ft 472 kts 129°
2026-04-30 14:05 58.03063 -138.42408 35148 ft 472 kts 129°
2026-04-30 14:06 57.97257 -138.27330 35148 ft 471 kts 129°
2026-04-30 14:07 57.91467 -138.12387 35145 ft 471 kts 129°
2026-04-30 14:08 57.85654 -137.97480 35157 ft 471 kts 129°
2026-04-30 14:08 57.79830 -137.82636 35147 ft 471 kts 129°
2026-04-30 14:09 57.75939 -137.72769 35152 ft 471 kts 129°
2026-04-30 14:10 57.70083 -137.57998 35149 ft 471 kts 129°
2026-04-30 14:10 57.66170 -137.48178 35150 ft 471 kts 129°
2026-04-30 14:11 57.62252 -137.38385 35152 ft 471 kts 129°
2026-04-30 14:11 57.58324 -137.28607 35154 ft 471 kts 129°
2026-04-30 14:12 57.54386 -137.18844 35150 ft 471 kts 129°
2026-04-30 14:12 57.50441 -137.09103 35151 ft 471 kts 129°
2026-04-30 14:13 57.46488 -136.99384 35150 ft 471 kts 129°
2026-04-30 14:13 57.42505 -136.89628 35146 ft 471 kts 129°
2026-04-30 14:14 57.38536 -136.79947 35149 ft 471 kts 129°
2026-04-30 14:14 57.34563 -136.70294 35147 ft 471 kts 129°
2026-04-30 14:15 57.30585 -136.60671 35150 ft 471 kts 129°
2026-04-30 14:15 57.26602 -136.51070 35149 ft 470 kts 129°
2026-04-30 14:16 57.22612 -136.41495 35147 ft 470 kts 129°
2026-04-30 14:16 57.18624 -136.31959 35150 ft 469 kts 129°
2026-04-30 14:17 57.14631 -136.22450 35151 ft 469 kts 129°
2026-04-30 14:17 57.10635 -136.12972 35153 ft 468 kts 129°
2026-04-30 14:18 57.06636 -136.03523 35151 ft 468 kts 129°
2026-04-30 14:18 57.00629 -135.89397 35168 ft 467 kts 129°
2026-04-30 14:19 56.94584 -135.75267 35171 ft 467 kts 129°
2026-04-30 14:20 56.90592 -135.65976 35174 ft 467 kts 129°
2026-04-30 14:20 56.84536 -135.51918 35182 ft 468 kts 129°
2026-04-30 14:21 56.81243 -135.44075 35182 ft 468 kts 129°
2026-04-30 14:22 56.75339 -135.29933 35185 ft 467 kts 129°
2026-04-30 14:22 56.69406 -135.15853 35185 ft 467 kts 130°
2026-04-30 14:23 56.61473 -134.97194 35190 ft 466 kts 130°
2026-04-30 14:24 56.55488 -134.83210 35194 ft 466 kts 131°
2026-04-30 14:25 56.47540 -134.64761 35203 ft 463 kts 131°
2026-04-30 14:26 56.41585 -134.51032 35209 ft 462 kts 132°
2026-04-30 14:27 56.35629 -134.37378 35206 ft 461 kts 132°
2026-04-30 14:27 56.31662 -134.28327 35211 ft 460 kts 132°
2026-04-30 14:28 56.25712 -134.14812 35209 ft 458 kts 133°
2026-04-30 14:28 56.21749 -134.05855 35211 ft 457 kts 133°
2026-04-30 14:29 56.13823 -133.88035 35211 ft 456 kts 133°
2026-04-30 14:31 56.03911 -133.65935 35224 ft 454 kts 134°
2026-04-30 14:31 55.97941 -133.52719 35228 ft 453 kts 134°
2026-04-30 14:32 55.91987 -133.39613 35226 ft 453 kts 134°
2026-04-30 14:33 55.88016 -133.30909 35226 ft 452 kts 134°
2026-04-30 14:33 55.82059 -133.17911 35229 ft 451 kts 135°
2026-04-30 14:34 55.78093 -133.09298 35225 ft 450 kts 135°
2026-04-30 14:34 55.74126 -133.00712 35231 ft 449 kts 135°
2026-04-30 14:35 55.68191 -132.87921 35238 ft 446 kts 135°
2026-04-30 14:36 55.64241 -132.79445 35233 ft 446 kts 135°
2026-04-30 14:36 55.60290 -132.71000 35241 ft 445 kts 135°
2026-04-30 14:37 55.56331 -132.62567 35236 ft 445 kts 135°
2026-04-30 14:37 55.52373 -132.54163 35237 ft 445 kts 135°
2026-04-30 14:38 55.48415 -132.45787 35247 ft 444 kts 135°
2026-04-30 14:38 55.44426 -132.37377 35250 ft 444 kts 136°
2026-04-30 14:39 55.40463 -132.29050 35245 ft 443 kts 136°
2026-04-30 14:39 55.36503 -132.20757 35258 ft 442 kts 136°
2026-04-30 14:40 55.30572 -132.08388 35258 ft 440 kts 136°
2026-04-30 14:40 55.26629 -132.00201 35263 ft 439 kts 136°
2026-04-30 14:41 55.22689 -131.92046 35263 ft 438 kts 136°
2026-04-30 14:41 55.18757 -131.83935 35252 ft 436 kts 136°
2026-04-30 14:42 55.14834 -131.75870 35260 ft 434 kts 137°
2026-04-30 14:42 55.10920 -131.67845 35252 ft 433 kts 137°
2026-04-30 14:43 55.07017 -131.59873 35250 ft 431 kts 137°
2026-04-30 14:43 55.02778 -131.52652 35260 ft 423 kts 144°
2026-04-30 14:44 54.98350 -131.45918 35245 ft 422 kts 145°
2026-04-30 14:44 54.93892 -131.39149 35249 ft 422 kts 145°
2026-04-30 14:45 54.89480 -131.32426 35260 ft 422 kts 144°
2026-04-30 14:45 54.85066 -131.25698 35251 ft 422 kts 144°
2026-04-30 14:46 54.80651 -131.18982 35257 ft 422 kts 144°
2026-04-30 14:46 54.76977 -131.13408 35264 ft 422 kts 145°
2026-04-30 14:47 54.71815 -131.05598 35261 ft 422 kts 145°
2026-04-30 14:47 54.67392 -130.98932 35276 ft 422 kts 145°
2026-04-30 14:48 54.62964 -130.92277 35269 ft 422 kts 145°
2026-04-30 14:48 54.58529 -130.85633 35255 ft 422 kts 145°
2026-04-30 14:49 54.54101 -130.79015 35264 ft 421 kts 145°
2026-04-30 14:49 54.49668 -130.72412 35258 ft 421 kts 145°
2026-04-30 14:50 54.43022 -130.62550 35242 ft 420 kts 145°
2026-04-30 14:51 54.36387 -130.52747 35245 ft 418 kts 145°
2026-04-30 14:52 54.29743 -130.42974 35250 ft 418 kts 145°
2026-04-30 14:52 54.23119 -130.33277 35250 ft 418 kts 145°
2026-04-30 14:53 54.16466 -130.23577 35241 ft 419 kts 146°
2026-04-30 14:54 54.08345 -130.11793 35268 ft 419 kts 146°
2026-04-30 14:55 54.01673 -130.02162 35251 ft 419 kts 146°
2026-04-30 14:56 53.92746 -129.89336 35273 ft 419 kts 146°
2026-04-30 14:57 53.86067 -129.79789 35279 ft 419 kts 146°
2026-04-30 14:58 53.77136 -129.67085 35283 ft 419 kts 146°
2026-04-30 14:58 53.70431 -129.57602 35292 ft 420 kts 146°
2026-04-30 15:00 53.59197 -129.41797 35290 ft 421 kts 146°
2026-04-30 15:01 53.50176 -129.29189 35255 ft 421 kts 146°
2026-04-30 15:01 53.43438 -129.19812 35294 ft 420 kts 146°
2026-04-30 15:02 53.38929 -129.13569 35294 ft 421 kts 146°
2026-04-30 15:03 53.27577 -128.97913 35275 ft 422 kts 146°
2026-04-30 15:04 53.16240 -128.82391 35270 ft 422 kts 146°
2026-04-30 15:06 53.04875 -128.66939 35279 ft 423 kts 146°
2026-04-30 15:07 52.95751 -128.54612 35271 ft 423 kts 146°
2026-04-30 15:08 52.86612 -128.42333 35279 ft 423 kts 146°
2026-04-30 15:09 52.75149 -128.27031 35269 ft 423 kts 146°
2026-04-30 15:10 52.65987 -128.14875 35272 ft 422 kts 146°
2026-04-30 15:11 52.52226 -127.96742 35283 ft 422 kts 146°
2026-04-30 15:13 52.40761 -127.81753 35285 ft 422 kts 146°
2026-04-30 15:14 52.24666 -127.60881 35263 ft 421 kts 146°
2026-04-30 15:17 52.03900 -127.34242 35286 ft 423 kts 147°
2026-04-30 15:19 51.85271 -127.10618 35279 ft 426 kts 147°